Regional Weather Roundup
Issued by NWS Jackson, KY

Home | Current Version | Previous Version | Graphics & Text | Print | Product List | Glossary On
Versions: 1 2 3 4 5 6 7 8 9 10 11 12 13 14 15 16 17 18 19 20 21 22 23 24 25 26 27 28 29 30 31 32 33 34 35 36 37 38 39 40 41 42 43 44 45 46 47 48 49 50
000
ASUS43 KJKL 181019
RWRJKL

EAST KENTUCKY HOURLY WEATHER ROUNDUP
NATIONAL WEATHER SERVICE JACKSON KY
500 AM EST THU DEC 18 2014

NOTE: "FAIR" INDICATES FEW OR NO CLOUDS BELOW 12,000 FEET WITH
NO SIGNIFICANT WEATHER AND/OR OBSTRUCTIONS TO VISIBILITY.

* THESE REPORTS ARE NOT UNDER NWS QUALITY CONTROL AND MAY NOT
  REPORT WEATHER SUCH AS PRECIPITATION AND FOG.

KYZ079-080-083-085-087-088-110-112-115-119-120-181100
...EASTERN KENTUCKY...

CITY           SKY/WX    TMP DP  RH WIND       PRES   REMARKS
JACKSON        CLOUDY    28  23  81 CALM      30.22S
LONDON         PTCLDY    26  22  84 N3        30.22F
SOMERSET*      CLOUDY    27  27 100 CALM      30.26F
MONTICELLO*    MOCLDY    27  26  96 CALM      30.27F
MIDDLESBORO*   PTCLDY    27  26  96 CALM      30.22S
HARLAN APT*    CLOUDY    30  28  93 E6        30.20F WCI  24
HAZARD APT*    CLOUDY    30  27  86 CALM      30.22F
BLACK MTN*       N/A     21  19  93 N5          N/A  WCI  15
PIKEVILLE APT* CLOUDY    28  23  80 CALM      30.21S
BIG SANDY*     CLOUDY    30  25  81 CALM      30.22S
MOREHEAD APT*  CLOUDY    28  21  74 CALM      30.26S
ASHLAND*       CLOUDY    30  19  64 CALM      30.24F
$$

KYZ035-036-041-042-044-050-067-078-099-181100
...CENTRAL KENTUCKY...

CITY           SKY/WX    TMP DP  RH WIND       PRES   REMARKS
MT STERLING*   CLOUDY    28  23  80 NE3       30.26R
FLEMING/MASON* CLOUDY    27  21  80 N6        30.27S WCI  20
DANVILLE*      CLOUDY    27  27 100 CALM      30.25F
RICHMOND*      CLOUDY    28  23  80 CALM      30.24F
LEXINGTON      CLOUDY    28  22  78 NE7       30.25F WCI  21
FRANKFORT      CLOUDY    28  20  71 NE6       30.24F WCI  22
$$

KYZ091>093-OHZ055-061-077-WVZ005-015-034-035-042-181100
...SOUTHERN OHIO/WEST VIRGINIA...

CITY           SKY/WX    TMP DP  RH WIND       PRES   REMARKS
COVINGTON      CLOUDY    26  18  71 NE7       30.26F WCI  18
COLUMBUS       CLOUDY    27  18  69 NW9       30.25R WCI  18
DAYTON         CLOUDY    27  19  72 NW6       30.25F WCI  20
WILMINGTON     CLOUDY    25  18  74 NW5       30.24F WCI  19
HUNTINGTON     CLOUDY    30  23  75 N6        30.24F WCI  24
CHARLESTON     CLOUDY    30  21  69 N8        30.23S WCI  22
PINEVILLE*     CLOUDY    32  28  85 MISG      30.22S
BECKLEY        CLOUDY    26  19  74 W8        30.13S WCI  18
BLUEFIELD      CLOUDY    28  21  75 NW9       30.11S WCI  19
$$

VAZ002-007-008-TNZ017-027-036-066-071-181100
...SOUTHWEST VIRGINIA/EAST TENNESSEE...

CITY           SKY/WX    TMP DP  RH WIND       PRES   REMARKS
WISE*          CLOUDY    28  27  93 NW3       30.15S
JONESVILLE*    PTSUNNY   25  25 100 CALM      30.22F
ABINGDON*      PTCLDY    31  27  84 SW5       30.16S WCI  26
BRISTOL        FOG       25  24  96 CALM      30.18F VSB 1/2
KNOXVILLE      CLOUDY    32  28  85 NE5       30.20F WCI  27
OAK RIDGE      CLOUDY    34  30  85 CALM      30.22F
CROSSVILLE     CLOUDY    33  27  78 N3        30.20R
NASHVILLE      LGT RAIN  33  30  88 NE6       30.26F WCI  28
$$

...KEY TO REMARKS...
VSB - VISIBILITY IN MILES
WCI - WIND CHILL INDEX
HX  - HEAT INDEX

$$



USA.gov is the U.S. government's official web portal to all federal, state and local government web resources and services.